Вернуться в каталог

COSMOS 2251 DEB

АктивенLEO
NORAD 33799·DEBRIS·🇷🇺 Russia

Запущен Jun 16, 1993 с Plesetsk Cosmodrome

Loading…

Ближайшие Пролёты (ближайшие 24 часа)

TLE

СвежийSource: Space-Track

Эпоха: Sep 14, 2026, 08:41 UTC

1 33799U 93036AQ  26257.36227147  .00008518  00000-0  95941-3 0  9999
2 33799  74.0300 255.8568 0026450 262.1001 164.1157 14.86506205928983

Отслеживайте COSMOS 2251 DEB в реальном времени с AllMySat

Download on the App Store